Baraboo, WI

5:53 PM CDT on April 30, 2017 (GMT -0500)
Baraboo Wisconsin Dells

Weather History for KDLL - February, 2014

Change the Weather History Date:

Sunday, February 23, 2014

  Actual Average Record
Temperature  
Mean Temperature 13 °F -  
Max Temperature 21 °F 36 °F 55 °F (1984)
Min Temperature 5 °F 15 °F -16 °F (2015)
Degree Days  
Heating Degree Days 52    
Moisture  
Dew Point 2 °F    
Average Humidity 61    
Maximum Humidity 75    
Minimum Humidity 46    
Precipitation  
Precipitation 0.00 in - - ()
Sea Level Pressure  
Sea Level Pressure 30.12 in    
Wind  
Wind Speed 9 mph (West)    
Max Wind Speed 20 mph    
Max Gust Speed 25 mph    
Visibility 10 miles    
Events      
Averages and records for this station are not official NWS values.
T = Trace of Precipitation, MM = Missing Value Source: NWS Daily Summary

Daily Weather History Graph

Daily Weather History Graph

Search for Another Location

Airport or City:

Trip Planner

Search our weather history database for the weather conditions in past years. The results will help you decide how hot, cold, wet, or windy it might be!

Date:

Astronomy

Feb. 23, 2014 Rise Set
Actual Time 6:45 AM CST 5:40 PM CST
Civil Twilight 6:16 AM CST 6:09 PM CST
Nautical Twilight 5:43 AM CST 6:42 PM CST
Astronomical Twilight 5:10 AM CST 7:15 PM CST
Moon 1:48 AM CST (2/23) 11:37 AM CST (2/23)
Length of Visible Light 11h 52m
Length of Day
10h 54m
Last Quarter, 38% of the Moon is Illuminated
Feb 23
Last Quarter
Mar 1
New
Mar 8
First Quarter
Mar 16
Full
Mar 23
Last Quarter

Hourly Weather History & Observations

Time (CST) Temp. Windchill Dew Point Humidity Pressure Visibility Wind Dir Wind Speed Gust Speed Precip Events Conditions
12:15 AM 9.9 °F -2.2 °F 2.5 °F 72% 30.05 in 10.0 mi West 8.1 mph - N/A   Clear
12:35 AM 9.5 °F -1.5 °F 2.3 °F 73% 30.05 in 10.0 mi West 6.9 mph - N/A   Clear
12:55 AM 9.1 °F -3.0 °F 2.1 °F 73% 30.05 in 10.0 mi West 8.1 mph - N/A   Clear
1:15 AM 9.0 °F -3.2 °F 1.9 °F 73% 30.06 in 10.0 mi West 8.1 mph - N/A   Clear
1:35 AM 8.6 °F -2.6 °F 1.6 °F 73% 30.06 in 10.0 mi West 6.9 mph - N/A   Clear
1:55 AM 8.2 °F -0.3 °F 1.2 °F 73% 30.06 in 10.0 mi West 4.6 mph - N/A   Clear
2:15 AM 7.7 °F 1.0 °F 0.7 °F 73% 30.06 in 10.0 mi West 3.5 mph - N/A   Clear
2:35 AM 7.7 °F -0.9 °F 0.5 °F 72% 30.07 in 10.0 mi West 4.6 mph - N/A   Clear
2:55 AM 7.5 °F -1.1 °F 0.3 °F 72% 30.06 in 10.0 mi West 4.6 mph - N/A   Clear
3:15 AM 7.5 °F -1.1 °F 0.1 °F 72% 30.07 in 10.0 mi West 4.6 mph - N/A   Clear
3:35 AM 7.0 °F -4.5 °F -0.4 °F 72% 30.08 in 10.0 mi West 6.9 mph - N/A   Clear
3:55 AM 7.2 °F -3.0 °F -0.4 °F 71% 30.09 in 10.0 mi West 5.8 mph - N/A   Clear
4:15 AM 7.0 °F -1.7 °F -0.6 °F 71% 30.09 in 10.0 mi West 4.6 mph - N/A   Clear
4:35 AM 6.6 °F -3.7 °F -0.9 °F 71% 30.09 in 10.0 mi West 5.8 mph - N/A   Clear
4:55 AM 6.4 °F -3.9 °F -1.1 °F 71% 30.10 in 10.0 mi West 5.8 mph - N/A   Clear
5:15 AM 6.3 °F -4.1 °F -1.3 °F 71% 30.11 in 10.0 mi West 5.8 mph - N/A   Clear
5:35 AM 6.1 °F -4.3 °F -1.5 °F 71% 30.12 in 10.0 mi West 5.8 mph - N/A   Clear
5:50 AM 6.1 °F -7.8 °F -1.5 °F 71% 30.12 in 10.0 mi West 9.2 mph - N/A   Clear
6:15 AM 5.9 °F -5.8 °F -1.7 °F 71% 30.13 in 10.0 mi West 6.9 mph - N/A   Clear
6:35 AM 5.9 °F -3.0 °F -1.7 °F 71% 30.13 in 10.0 mi West 4.6 mph - N/A   Clear
6:55 AM 5.5 °F -6.3 °F -1.8 °F 72% 30.12 in 10.0 mi West 6.9 mph - N/A   Clear
7:15 AM 6.3 °F -5.4 °F -1.7 °F 70% 30.12 in 10.0 mi West 6.9 mph - N/A   Clear
7:35 AM 6.8 °F -6.9 °F -1.5 °F 69% 30.13 in 10.0 mi West 9.2 mph - N/A   Clear
7:55 AM 7.7 °F -5.8 °F -1.1 °F 67% 30.13 in 10.0 mi West 9.2 mph - N/A   Clear
8:15 AM 8.6 °F -5.5 °F -0.9 °F 65% 30.13 in 10.0 mi West 10.4 mph - N/A   Clear
8:35 AM 9.5 °F -5.2 °F -0.8 °F 63% 30.14 in 10.0 mi West 11.5 mph 16.1 mph N/A   Clear
8:55 AM 10.4 °F -5.4 °F -0.6 °F 61% 30.14 in 10.0 mi West 13.8 mph - N/A   Clear
9:15 AM 11.3 °F -0.4 °F -0.0 °F 60% 30.16 in 10.0 mi West 8.1 mph - N/A   Clear
9:35 AM 12.6 °F 0.2 °F -0.0 °F 57% 30.16 in 10.0 mi WNW 9.2 mph 17.3 mph N/A   Clear
9:55 AM 13.8 °F -1.7 °F 0.5 °F 56% 30.16 in 10.0 mi WNW 15.0 mph 20.7 mph N/A   Clear
10:15 AM 14.9 °F 2.3 °F 0.1 °F 52% 30.15 in 10.0 mi WNW 10.4 mph 16.1 mph N/A   Clear
10:35 AM 15.4 °F 1.0 °F 0.3 °F 51% 30.14 in 10.0 mi WNW 13.8 mph 19.6 mph N/A   Clear
10:50 AM 16.2 °F 3.9 °F 1.2 °F 52% 30.14 in 10.0 mi West 10.4 mph - N/A   Clear
11:15 AM 16.7 °F 4.5 °F 1.0 °F 50% 30.14 in 10.0 mi WNW 10.4 mph - N/A   Clear
11:30 AM 17.4 °F 5.4 °F 1.4 °F 50% 30.15 in 10.0 mi WNW 10.4 mph - N/A   Clear
11:55 AM 18.1 °F 3.9 °F 1.8 °F 49% 30.14 in 10.0 mi West 15.0 mph 20.7 mph N/A   Clear
12:15 PM 18.9 °F 6.5 °F 2.8 °F 50% 30.14 in 10.0 mi West 11.5 mph 17.3 mph N/A   Clear
12:35 PM 19.0 °F 4.5 °F 3.2 °F 50% 30.14 in 10.0 mi West 16.1 mph - N/A   Clear
12:55 PM 19.6 °F 5.7 °F 2.3 °F 47% 30.13 in 10.0 mi West 15.0 mph 19.6 mph N/A   Clear
1:15 PM 20.1 °F 7.5 °F 3.0 °F 48% 30.12 in 10.0 mi West 12.7 mph 19.6 mph N/A   Clear
1:35 PM 20.8 °F 7.9 °F 3.4 °F 47% 30.12 in 10.0 mi West 13.8 mph 20.7 mph N/A   Clear
1:55 PM 21.2 °F 6.4 °F 3.0 °F 46% 30.12 in 10.0 mi West 18.4 mph 24.2 mph N/A   Clear
2:15 PM 21.2 °F 7.8 °F 3.7 °F 47% 30.12 in 10.0 mi West 15.0 mph 20.7 mph N/A   Clear
2:35 PM 21.0 °F 8.6 °F 3.9 °F 48% 30.12 in 10.0 mi West 12.7 mph 19.6 mph N/A   Clear
2:55 PM 21.2 °F 8.3 °F 3.6 °F 47% 30.12 in 10.0 mi West 13.8 mph 18.4 mph N/A   Clear
3:15 PM 20.8 °F 6.8 °F 3.6 °F 47% 30.12 in 10.0 mi West 16.1 mph 21.9 mph N/A   Clear
3:35 PM 20.8 °F 7.9 °F 3.9 °F 48% 30.12 in 10.0 mi West 13.8 mph 20.7 mph N/A   Clear
3:55 PM 20.3 °F 5.7 °F 3.2 °F 48% 30.12 in 10.0 mi West 17.3 mph 23.0 mph N/A   Clear
4:15 PM 20.5 °F 5.9 °F 3.2 °F 47% 30.12 in 10.0 mi West 17.3 mph 21.9 mph N/A   Clear
4:35 PM 20.3 °F 8.3 °F 3.0 °F 47% 30.11 in 10.0 mi West 11.5 mph 20.7 mph N/A   Clear
4:55 PM 19.4 °F 5.0 °F 3.2 °F 49% 30.11 in 10.0 mi West 16.1 mph 21.9 mph N/A   Clear
4:57 PM 19.4 °F 5.5 °F 3.2 °F 49% 30.12 in 10.0 mi West 15.0 mph 21.9 mph N/A   Clear
5:15 PM 18.9 °F 5.9 °F 3.2 °F 51% 30.11 in 10.0 mi West 12.7 mph 21.9 mph N/A   Clear
5:16 PM 19.4 °F 7.2 °F 3.2 °F 49% 30.11 in 10.0 mi West 11.5 mph 21.9 mph N/A   Clear
5:35 PM 17.8 °F 4.0 °F 2.8 °F 52% 30.12 in 10.0 mi West 13.8 mph 25.3 mph N/A   Clear
5:38 PM 17.6 °F 5.7 °F 3.2 °F 53% 30.12 in 10.0 mi West 10.4 mph 19.6 mph N/A   Clear
5:55 PM 17.2 °F 4.5 °F 2.8 °F 53% 30.12 in 10.0 mi West 11.5 mph 17.3 mph N/A   Clear
6:15 PM 16.3 °F 2.7 °F 3.4 °F 57% 30.13 in 10.0 mi West 12.7 mph 17.3 mph N/A   Clear
6:35 PM 15.6 °F -1.3 °F 3.2 °F 58% 30.13 in 10.0 mi West 19.6 mph - N/A   Clear
6:55 PM 14.7 °F 1.4 °F 3.2 °F 60% 30.14 in 10.0 mi West 11.5 mph 19.6 mph N/A   Clear
7:15 PM 14.0 °F -1.4 °F 3.2 °F 62% 30.14 in 10.0 mi West 15.0 mph 19.6 mph N/A   Clear
7:35 PM 13.3 °F -0.5 °F 3.0 °F 64% 30.15 in 10.0 mi West 11.5 mph - N/A   Clear
7:55 PM 12.9 °F -0.2 °F 2.7 °F 64% 30.16 in 10.0 mi West 10.4 mph - N/A   Clear
8:15 PM 12.7 °F -2.5 °F 2.3 °F 63% 30.16 in 10.0 mi West 13.8 mph 19.6 mph N/A   Clear
8:35 PM 12.2 °F -3.1 °F 2.3 °F 65% 30.16 in 10.0 mi West 13.8 mph 19.6 mph N/A   Clear
8:55 PM 11.7 °F -3.8 °F 2.3 °F 66% 30.16 in 10.0 mi West 13.8 mph 21.9 mph N/A   Clear
9:15 PM 11.3 °F -3.6 °F 2.3 °F 67% 30.17 in 10.0 mi West 12.7 mph 17.3 mph N/A   Clear
9:35 PM 11.1 °F -3.2 °F 2.3 °F 68% 30.16 in 10.0 mi West 11.5 mph - N/A   Clear
9:55 PM 10.6 °F -3.1 °F 2.3 °F 69% 30.16 in 10.0 mi West 10.4 mph - N/A   Clear
10:10 PM 10.4 °F -3.3 °F 2.3 °F 70% 30.16 in 10.0 mi West 10.4 mph 16.1 mph N/A   Clear
10:35 PM 10.0 °F -1.9 °F 2.3 °F 71% 30.17 in 10.0 mi West 8.1 mph - N/A   Clear
10:55 PM 9.9 °F -2.2 °F 2.3 °F 71% 30.16 in 10.0 mi West 8.1 mph - N/A   Clear
11:15 PM 9.3 °F -1.7 °F 2.3 °F 73% 30.16 in 10.0 mi West 6.9 mph - N/A   Clear
11:35 PM 9.1 °F -1.9 °F 2.3 °F 74% 30.16 in 10.0 mi West 6.9 mph - N/A   Clear
11:55 PM 8.8 °F -2.4 °F 2.3 °F 75% 30.16 in 10.0 mi West 6.9 mph - N/A   Clear